KLMJU71 LLBG-LCLK

Flight info

Callsign KLMJU71
Flight time N/A
Altitude 38000
Route SUVAS DCT STEPA DCT APLON M32 PHA
Aircraft B737/M-SDE2E3FGHIRWXY/LB1

Departure

Time 2026-05-04 14:12
Airport Ben Gurion International Airport (LLBG)

Arrival

Time N/A
Airport Larnaca International Airport (LCLK)
Time Latitude Longitude Altitude Speed Heading
2026-05-04 13:50 32.00552 34.87514 117 ft 0 kts 281°
2026-05-04 13:59 32.00548 34.87547 128 ft 4 kts 279°
2026-05-04 14:00 32.00543 34.87578 118 ft 4 kts 284°
2026-05-04 14:00 32.00527 34.87615 115 ft 2 kts 55°
2026-05-04 14:00 32.00524 34.87609 115 ft 0 kts 56°
2026-05-04 14:04 32.00524 34.87610 116 ft 0 kts 56°
2026-05-04 14:04 32.00529 34.87619 115 ft 3 kts 56°
2026-05-04 14:04 32.00546 34.87648 116 ft 6 kts 56°
2026-05-04 14:05 32.00623 34.87734 116 ft 9 kts 65°
2026-05-04 14:05 32.00609 34.87812 116 ft 11 kts 120°
2026-05-04 14:05 32.00600 34.87829 117 ft 2 kts 120°
2026-05-04 14:06 32.00589 34.87851 117 ft 4 kts 120°
2026-05-04 14:06 32.00580 34.87894 117 ft 6 kts 89°
2026-05-04 14:06 32.00611 34.87935 118 ft 8 kts 35°
2026-05-04 14:06 32.00666 34.87973 117 ft 10 kts 31°
2026-05-04 14:07 32.00735 34.88021 118 ft 12 kts 31°
2026-05-04 14:07 32.00814 34.88078 116 ft 15 kts 31°
2026-05-04 14:07 32.00906 34.88146 118 ft 16 kts 32°
2026-05-04 14:07 32.01009 34.88220 117 ft 18 kts 27°
2026-05-04 14:08 32.01120 34.88298 120 ft 19 kts 31°
2026-05-04 14:08 32.01239 34.88386 122 ft 21 kts 35°
2026-05-04 14:08 32.01352 34.88504 122 ft 22 kts 48°
2026-05-04 14:08 32.01442 34.88660 122 ft 23 kts 63°
2026-05-04 14:09 32.01520 34.88995 124 ft 7 kts 80°
2026-05-04 14:09 32.01529 34.89061 128 ft 9 kts 80°
2026-05-04 14:10 32.01629 34.89150 125 ft 13 kts 347°
2026-05-04 14:10 32.01657 34.89144 127 ft 1 kts 351°
2026-05-04 14:10 32.01679 34.89139 126 ft 5 kts 349°
2026-05-04 14:10 32.01728 34.89126 125 ft 9 kts 336°
2026-05-04 14:11 32.01741 34.89064 128 ft 8 kts 262°
2026-05-04 14:11 32.01570 34.87945 118 ft 143 kts 259°
2026-05-04 14:11 32.01379 34.86622 531 ft 176 kts 260°
2026-05-04 14:12 32.01157 34.85099 1059 ft 204 kts 258°
2026-05-04 14:12 32.00807 34.83352 1416 ft 232 kts 257°
2026-05-04 14:12 31.99912 34.79170 2160 ft 276 kts 256°
2026-05-04 14:13 31.99455 34.77037 3519 ft 261 kts 257°
2026-05-04 14:13 31.99293 34.74955 4944 ft 250 kts 274°
2026-05-04 14:13 31.99680 34.72996 6302 ft 244 kts 285°
2026-05-04 14:13 32.00271 34.71102 7284 ft 248 kts 287°
2026-05-04 14:14 32.00893 34.69180 7582 ft 253 kts 287°
2026-05-04 14:14 32.02188 34.65144 6230 ft 273 kts 287°
2026-05-04 14:14 32.02869 34.63028 5553 ft 279 kts 287°